This demonstration page uses our WeatherBlox Daily Observations layout. Learn more.

Left ArrowRight Arrow

Hourly Observations for April 14, 2019

Temp ( °F °C ) Dew Point ( °F °C ) Humidity (%) Winds ( mph kmh ) Pressure ( in mb ) Visibility ( mi km ) Precip ( " mm )
12:15 am 00:15 Clear 35 1.5 26 -3.2 71 71 E 3 6 30.10 1019 10 16 0.00 0.00
12:35 am 00:35 Clear 33 0.6 26 -3.2 76 76 E 5 7 30.10 1019 10 16 0.00 0.00
12:55 am 00:55 Clear 33 0.5 26 -3.2 77 77 E 5 7 30.09 1019 10 16 0.00 0.00
1:15 am 01:15 Clear 32 0.1 26 -3.2 79 79 Calm 30.10 1019 10 16 0.00 0.00
1:35 am 01:35 Clear 32 0 27 -3 80 80 E 3 6 30.09 1019 10 16 0.00 0.00
1:55 am 01:55 Clear 32 -0.2 26 -3.1 81 81 ESE 5 7 30.09 1019 10 16 0.00 0.00
2:15 am 02:15 Clear 33 0.3 26 -3.6 75 75 SE 3 6 30.07 1018 10 16 0.00 0.00
2:35 am 02:35 Clear 32 0 25 -4 75 75 ESE 3 6 30.07 1018 10 16 0.00 0.00
2:55 am 02:55 Clear 31 -0.4 25 -4 77 77 Calm 30.07 1018 10 16 0.00 0.00
3:15 am 03:15 Clear 31 -0.6 25 -3.7 80 80 ESE 3 6 30.06 1018 10 16 0.00 0.00
3:35 am 03:35 Clear 31 -0.7 25 -4 79 79 ESE 3 6 30.06 1018 10 16 0.00 0.00
3:55 am 03:55 Clear 31 -0.3 25 -4 76 76 SE 5 7 30.05 1018 10 16 0.00 0.00
4:15 am 04:15 Clear 30 -0.9 25 -4 80 80 ESE 3 6 30.06 1018 10 16 0.00 0.00
4:35 am 04:35 Mostly Cloudy 30 -0.9 25 -3.8 81 81 Calm 30.06 1018 10 16 0.00 0.00
4:55 am 04:55 Cloudy 31 -0.8 26 -3.1 85 85 Calm 30.05 1018 10 16 0.00 0.00
5:15 am 05:15 Cloudy 32 -0.1 27 -2.6 83 83 Calm 30.05 1018 10 16 0.00 0.00
5:35 am 05:35 Cloudy 32 0 27 -3 80 80 SSE 3 6 30.04 1017 10 16 0.00 0.00
5:55 am 05:55 Cloudy 32 0.1 26 -3.1 79 79 SSE 3 6 30.03 1017 10 16 0.00 0.00
6:15 am 06:15 Cloudy 32 0 27 -2.9 81 81 SSE 3 6 30.02 1016 10 16 0.00 0.00
6:35 am 06:35 Cloudy 32 -0.1 26 -3.1 80 80 Calm 30.02 1017 10 16 0.00 0.00
6:55 am 06:55 Cloudy 32 0 26 -3.3 79 79 SSE 3 6 30.02 1016 10 16 0.00 0.00
7:15 am 07:15 Mostly Cloudy 31 -0.5 26 -3.2 82 82 SSE 3 6 30.01 1016 10 16 0.00 0.00
7:35 am 07:35 Mostly Cloudy 31 -0.5 26 -3.3 82 82 SE 5 7 30.01 1016 10 16 0.00 0.00
7:55 am 07:55 Mostly Cloudy 32 -0.2 26 -3.2 80 80 SSE 5 7 30.01 1016 10 16 0.00 0.00
8:15 am 08:15 Partly Cloudy 32 0.2 26 -3.1 79 79 SE 6 9 29.99 1016 10 16 0.00 0.00
8:35 am 08:35 Sunny 34 0.9 27 -3 75 75 SSE 7 11 29.99 1015 10 16 0.00 0.00
8:55 am 08:55 Sunny 35 1.7 28 -2.4 75 75 SSE 9 15 29.97 1015 10 16 0.00 0.00
9:15 am 09:15 Sunny 37 2.6 27 -2.6 69 69 SSE 9 15 29.96 1015 10 16 0.00 0.00
9:35 am 09:35 Sunny 39 3.8 29 -1.8 67 67 S 10 17 29.94 1014 10 16 0.00 0.00
9:55 am 09:55 Sunny 40 4.5 27 -2.6 60 60 SSE 13 20 29.92 1013 10 16 0.00 0.00
10:15 am 10:15 Sunny 42 5.4 27 -2.8 56 56 S 14 22 29.90 1013 10 16 0.00 0.00
10:35 am 10:35 Sunny 43 6.1 26 -3.1 52 52 S 14 22 29.90 1012 10 16 0.00 0.00
10:55 am 10:55 Sunny 44 6.9 28 -2.5 52 52 S 13 20 29.88 1012 10 16 0.00 0.00
11:15 am 11:15 Sunny 46 7.6 28 -2.4 50 50 S 14 22 29.86 1011 10 16 0.00 0.00
11:35 am 11:35 Sunny 47 8.2 28 -2.5 47 47 S 15 24 29.86 1011 10 16 0.00 0.00
11:55 am 11:55 Partly Cloudy 49 9.4 29 -1.6 46 46 S 17 28 29.84 1010 10 16 0.00 0.00
12:15 pm 12:15 Partly Cloudy 50 9.9 30 -1.3 46 46 S 17 28 29.83 1010 10 16 0.00 0.00
12:35 pm 12:35 Sunny 51 10.4 31 -0.7 46 46 SSE 15 24 29.82 1010 10 16 0.00 0.00
1:15 pm 13:15 Partly Cloudy 54 12.3 31 -0.5 42 42 S 16 26 29.77 1008 10 16 0.00 0.00
1:35 pm 13:35 Partly Cloudy 56 13.1 31 -0.4 40 40 S 17 28 29.75 1008 10 16 0.00 0.00
1:55 pm 13:55 Sunny 57 13.8 32 -0.1 39 39 S 20 31 29.74 1007 10 16 0.00 0.00
2:15 pm 14:15 Partly Cloudy 58 14.4 31 -0.5 36 36 S 15 24 29.71 1006 10 16 0.00 0.00
2:35 pm 14:35 Sunny 58 14.6 32 -0.1 37 37 S 17 28 29.71 1006 10 16 0.00 0.00
2:55 pm 14:55 Sunny 59 15 31 -0.3 35 35 S 14 22 29.69 1005 10 16 0.00 0.00
3:15 pm 15:15 Sunny 60 15.8 32 0.2 35 35 S 16 26 29.68 1005 10 16 0.00 0.00
3:35 pm 15:35 Sunny 61 16.3 31 -0.3 33 33 S 17 28 29.65 1004 10 16 0.00 0.00
3:55 pm 15:55 Sunny 62 16.5 31 -0.3 32 32 S 14 22 29.64 1004 10 16 0.00 0.00
4:15 pm 16:15 Sunny 63 17.3 32 0 31 31 S 15 24 29.62 1003 10 16 0.00 0.00
4:35 pm 16:35 Sunny 64 17.7 32 -0.2 30 30 S 14 22 29.61 1003 10 16 0.00 0.00
4:55 pm 16:55 Sunny 64 17.7 31 -0.4 30 30 SSW 14 22 29.60 1002 10 16 0.00 0.00
5:15 pm 17:15 Sunny 64 17.5 32 -0.1 31 31 S 13 20 29.59 1002 10 16 0.00 0.00
5:35 pm 17:35 Sunny 63 17.4 32 0.1 31 31 S 17 28 29.60 1002 10 16 0.00 0.00
5:55 pm 17:55 Sunny 62 16.6 32 0 33 33 SSE 15 24 29.60 1002 10 16 0.00 0.00
6:15 pm 18:15 Sunny 62 16.6 33 0.4 34 34 SSE 12 19 29.60 1002 10 16 0.00 0.00
6:35 pm 18:35 Sunny 62 16.6 32 0 33 33 S 13 20 29.60 1002 10 16 0.00 0.00
6:55 pm 18:55 Partly Cloudy 61 16 32 0.1 34 34 S 13 20 29.61 1003 10 16 0.00 0.00
7:15 pm 19:15 Partly Cloudy 60 15.5 32 0.1 35 35 S 14 22 29.61 1003 10 16 0.00 0.00
7:35 pm 19:35 Mostly Cloudy 60 15.3 33 0.5 37 37 SSE 10 17 29.60 1002 10 16 0.00 0.00
7:55 pm 19:55 Cloudy 58 14.6 34 0.9 40 40 SSE 12 19 29.60 1002 10 16 0.00 0.00
8:15 pm 20:15 Cloudy 57 14.1 34 1.3 42 42 SSE 10 17 29.61 1003 10 16 0.00 0.00
8:35 pm 20:35 Cloudy 57 13.8 35 1.6 44 44 SSE 12 19 29.63 1003 10 16 0.00 0.00
8:55 pm 20:55 Cloudy 56 13.5 35 1.7 45 45 SSE 8 13 29.63 1003 10 16 0.00 0.00
9:15 pm 21:15 Mostly Cloudy 55 12.8 35 1.9 48 48 S 8 13 29.65 1004 10 16 0.00 0.00
9:35 pm 21:35 Cloudy 54 12.2 36 2.2 51 51 S 6 9 29.67 1005 10 16 0.00 0.00
9:55 pm 21:55 Mostly Cloudy 54 12.2 36 2.1 50 50 SSE 8 13 29.67 1005 10 16 0.00 0.00
10:15 pm 22:15 Partly Cloudy 54 12.2 35 1.6 49 49 S 8 13 29.67 1005 10 16 0.00 0.00
10:35 pm 22:35 Partly Cloudy 51 10.5 35 1.5 54 54 SSE 7 11 29.69 1005 10 16 0.00 0.00
10:55 pm 22:55 Mostly Cloudy 50 10.2 36 2 57 57 SSE 9 15 29.69 1005 10 16 0.00 0.00
11:15 pm 23:15 Partly Cloudy 50 10 35 1.9 57 57 SSE 8 13 29.68 1005 10 16 0.00 0.00
11:35 pm 23:35 Clear 49 9.5 35 1.8 59 59 SSE 8 13 29.69 1005 10 16 0.00 0.00
11:55 pm 23:55 Partly Cloudy 47 8.5 36 2 64 64 SSE 7 11 29.70 1006 10 16 0.00 0.00

Powered by AerisWeather